Weather History for Ouarzazate, Morocco

Change the Weather History Date:

Thursday, January 17, 2013

  Actual Average Record
Temperature  
Mean Temperature 60 °F -  
Max Temperature 71 °F 65 °F - ()
Min Temperature 50 °F 38 °F - ()
Degree Days  
Heating Degree Days 4    
Growing Degree Days 10 (Base 50)    
Moisture  
Dew Point -1 °F    
Average Humidity 9    
Maximum Humidity 23    
Minimum Humidity 4    
Precipitation  
Precipitation 0.00 in 0.02 in - ()
Sea Level Pressure  
Sea Level Pressure 30.16 in    
Wind  
Wind Speed 9 mph ()    
Max Wind Speed 21 mph    
Max Gust Speed 32 mph    
Visibility 9.1 miles    
Events      
T = Trace of Precipitation, MM = Missing Value Source: Averaged Metar Reports

Daily Weather History Graph

Daily Weather History Graph

Search for Another Location

Airport:

Trip Planner

Search our weather history database for the weather conditions in past years. The results will help you decide how hot, cold, wet, or windy it might be!

Date:

Astronomy

Jan. 17, 2013 Rise Set
Actual Time 7:25 AM WET 5:50 PM WET
Civil Twilight 6:59 AM WET 6:16 PM WET
Nautical Twilight 6:30 AM WET 6:45 PM WET
Astronomical Twilight 6:01 AM WET 7:14 PM WET
Moon 10:53 AM WET (1/17) 11:57 PM WET (1/17)
Length of Visible Light 11h 16m
Length of Day
10h 24m
Waxing Crescent, 35% of the Moon is Illuminated
Jan 17
Waxing Crescent
Jan 18
First Quarter
Jan 27
Full
Feb 3
Last Quarter
Feb 10
New

Hourly Weather History & Observations

Time (WET) Temp. Dew Point Humidity Pressure Visibility Wind Dir Wind Speed Gust Speed Precip Events Conditions
12:00 AM 56 °F -10 °F 4%  in 6 mi NW 20.7 mph - -   Clear
12:00 AM 55.4 °F -11.2 °F 6% 30.21 in 3.7 mi NW 20.7 mph 32.2 mph N/A   Unknown
1:00 AM 55.4 °F -11.2 °F 6% 30.18 in - NW 16.1 mph - N/A   Clear
2:00 AM 53.6 °F -11.2 °F 7% 30.18 in - NW 16.1 mph - N/A   Clear
3:00 AM 54 °F -12 °F 4%  in 6 mi NW 16.1 mph - -   Clear
4:00 AM 55.4 °F -11.2 °F 6% 30.15 in - North 9.2 mph - N/A   Clear
5:00 AM 55.4 °F -11.2 °F 6% 30.15 in - North 8.1 mph - N/A   Clear
6:00 AM 55 °F -11 °F 4%  in 6 mi NNW 6.9 mph - -   Clear
6:00 AM 55.4 °F -14.8 °F 5% 30.15 in - NNW 8.1 mph - N/A   Clear
7:00 AM 53.6 °F -13.0 °F 6% 30.15 in - NW 13.8 mph - N/A   Clear
8:00 AM 51.8 °F -11.2 °F 7% 30.18 in - NNW 8.1 mph - N/A   Clear
9:00 AM 53 °F -13 °F 4%  in 12 mi West 2.3 mph - -   Clear
9:00 AM 53.6 °F -13.0 °F 6% 30.21 in - West 2.3 mph - N/A   Clear
10:00 AM 53.6 °F -4.0 °F 9% 30.21 in - Calm Calm - N/A   Clear
11:00 AM 59.0 °F -9.4 °F 6% 30.21 in - West 3.5 mph - N/A   Clear
12:00 PM 61 °F -7 °F 4%  in 12 mi ENE 2.3 mph - -   Clear
12:00 PM 60.8 °F -5.8 °F 7% 30.18 in - ENE 2.3 mph - N/A   Clear
1:00 PM 64.4 °F -4.0 °F 6% 30.15 in - East 2.3 mph - N/A   Clear
2:00 PM 68.0 °F -0.4 °F 7% 30.12 in - East 2.3 mph - N/A   Clear
3:00 PM 69 °F -1 °F 4%  in 12 mi ESE 3.5 mph - -   Clear
3:00 PM 69.8 °F -0.4 °F 6% 30.09 in - ESE 3.5 mph - N/A   Clear
4:00 PM 71.6 °F 10.4 °F 9% 30.09 in - WNW 2.3 mph - N/A   Clear
6:00 PM 66 °F 18 °F 8%  in 12 mi NNW 11.5 mph - -   Clear
6:00 PM 66.2 °F 17.6 °F 15% 30.12 in - NNW 11.5 mph - N/A   Clear
7:00 PM 60.8 °F 19.4 °F 20% 30.12 in - NNW 9.2 mph - N/A   Clear
8:00 PM 59.0 °F 17.6 °F 20% 30.15 in - Variable 3.5 mph - N/A   Clear
9:00 PM 58 °F 17 °F 10%  in 12 mi West 8.1 mph - -   Clear
9:00 PM 57.2 °F 17.6 °F 21% 30.15 in - West 8.1 mph - N/A   Clear
10:00 PM 57.2 °F 17.6 °F 21% 30.15 in - WSW 6.9 mph - N/A   Clear
11:00 PM 55.4 °F 17.6 °F 23% 30.15 in - SW 1.2 mph - N/A   Clear